Showing default

OPS 9334 (DATS), 2865

Orbit data source: Space-Track

OPS 9334 (DATS), 2865 is a payload satellite owned by SAMSO (US) in GEO that was launched on Sat, 01 Jul 1967 UTC via a TITAN IIIC launch vehicle from the Air Force Eastern Test Range (AFETR). Payloads include a variety of satellites, spacecraft, and rockets equipped with specific instruments for various scientific and technological missions. These include communications satellites like Starlink; space stations such as the ISS; scientific satellites like the Hubble; Earth observation satellites from companies like Planet Labs, Umbra, and HawkEye 360; GPS; miniature CubeSats for education and research; and military/defense satellites.

Not visible in the next 10 days
OPS 9334 (DATS) details
Identifier
2865, 1967-066D
Orbit
GEO
Last TLE update18 hours ago
Origin
Flag of USSAMSO (US)
ManufacturerPhilco-Ford WDL
MissionNon-operational Defense Communications
Bus & MotorIDCSP, Unknown motor
Mass68 kg wet, 68 kg dry
Launch date (UTC)
1967-07-01 (57 years ago)
Launch vehicle
TITAN IIIC
Launch site
Air Force Eastern Test Range (AFETR)
Object type
Payload
Rocket body
Debris
Shape & HBRPoly, Unknown HBR
Radar Cross Section0.926 m², Medium (>0.1 m² and < 1m²)

Expand to show TLE details & history

TLE from 18 hours ago
0 OPS 9334 (DATS)
1 02865U 67066D   24355.75028595 -.00000085  00000-0  00000-0 0  9990
2 02865   1.5034 118.0953 0056383 191.8154  93.0170  1.09624458124205
Epoch: 2024-12-20T18:00Z
Definitive object data (Epoch: 2024-12-20T18:00:24.706Z)
Latitude-1.43844°
Longitude43.66903°
Altitude33,366.519 km
Speed3.166 km/s
True Right ascension02h 54m 19s
True Declination-1° 26' 13"
Sunlit
Object was in daylight at TLE epoch
Visualization TLE readout
Latitude-0.86269°
Longitude-27.35656°
Altitude33,145.654 km
Speed3.184 km/s
Apparent Right ascension22h 13m 17s
Apparent Declination-6° 00' 00"
Sunlit
Object is in daylight
Visualization observer readout
Local Sidereal Time10:37:57
Azimuth10.912° NNE
Elevation-55.633°
Doppler factor1
Orbital elements
Apogee altitude33,578.081 km
Perigee altitude33,130.037 km
Semi-major axis39,732.196 km
Eccentricity0.0056383
Inclination1.5034°
RAAN118.0953°
Arg. of periapsis191.8154°
True anomaly93.66195°
Mean anomaly93.017°
Eccentric anomaly93.3395°
Mean motion0.27405 °/min
BSTARUnknown
Orbital period1313.63 mins
Loading historical data...
2865 neighbors
Authenticating...
Loading maneuver chart data...
Loading historical data...
Loading historical data...
Loading historical data...
Loading historical data...
Loading historical data...
Loading historical data...
Loading historical data...

OPS 9334 (DATS) Visibility forecast

Observer location: undefined°, undefined

OPS 9334 (DATS) is not visible in the next 10 days
Span
Click to sort rows by Start time (UTC) header in descending order
Start Az.
Max El. time (UTC)
Max El. Az.
Max El.
End time (UTC)
End Az.
|